TimeMDT,TemperatureF,Dew PointF,Humidity,Sea Level PressureIn,VisibilityMPH,Wind Direction,Wind SpeedMPH,Gust SpeedMPH,PrecipitationIn,Events,Conditions,WindDirDegrees,DateUTC
12:15 AM,35.8,13.1,39,29.92,10.0,North,16.1,-,N/A,,Scattered Clouds,360,2013-03-19 06:15:00
12:35 AM,34.5,12.9,41,29.93,10.0,North,16.1,-,N/A,,Scattered Clouds,360,2013-03-19 06:35:00
12:55 AM,31.8,13.8,47,29.92,10.0,North,15.0,-,N/A,,Scattered Clouds,10,2013-03-19 06:55:00
1:15 AM,30.0,13.6,51,29.93,10.0,NE,15.0,-,N/A,,Clear,50,2013-03-19 07:15:00
1:35 AM,28.4,14.0,55,29.94,10.0,NE,4.6,-,N/A,,Clear,50,2013-03-19 07:35:00
1:55 AM,27.9,14.5,57,29.95,10.0,East,6.9,-,N/A,,Clear,90,2013-03-19 07:55:00
2:15 AM,26.2,14.7,62,29.95,10.0,ENE,5.8,-,N/A,,Clear,70,2013-03-19 08:15:00
2:35 AM,25.5,15.1,65,29.96,10.0,NE,3.5,-,N/A,,Clear,50,2013-03-19 08:35:00
2:55 AM,23.5,14.5,69,29.96,10.0,Calm,Calm,-,N/A,,Clear,0,2013-03-19 08:55:00
3:15 AM,23.5,14.0,67,29.95,10.0,WNW,3.5,-,N/A,,Clear,290,2013-03-19 09:15:00
3:35 AM,22.6,14.0,69,29.95,10.0,NNE,6.9,-,N/A,,Clear,30,2013-03-19 09:35:00
3:55 AM,22.1,14.4,72,29.94,10.0,NNE,9.2,-,N/A,,Clear,20,2013-03-19 09:55:00
4:15 AM,24.6,15.1,67,29.95,10.0,NNE,5.8,-,N/A,,Clear,30,2013-03-19 10:15:00
4:35 AM,21.9,14.4,73,29.95,10.0,North,6.9,-,N/A,,Clear,10,2013-03-19 10:35:00
4:55 AM,21.6,14.9,76,29.96,10.0,North,9.2,-,N/A,,Clear,360,2013-03-19 10:55:00
5:15 AM,20.8,14.4,76,29.98,10.0,NNW,9.2,-,N/A,,Clear,340,2013-03-19 11:15:00
5:35 AM,21.0,14.7,77,29.98,10.0,North,9.2,-,N/A,,Clear,350,2013-03-19 11:35:00
5:55 AM,21.2,14.5,75,29.99,10.0,NNW,6.9,-,N/A,,Clear,330,2013-03-19 11:55:00
6:15 AM,21.9,15.1,75,30.02,10.0,NNW,15.0,23.0,N/A,,Clear,330,2013-03-19 12:15:00
6:35 AM,21.2,14.9,77,30.03,10.0,West,5.8,-,N/A,,Clear,280,2013-03-19 12:35:00
6:55 AM,25.0,14.9,66,30.04,10.0,WNW,9.2,17.3,N/A,,Clear,300,2013-03-19 12:55:00
7:15 AM,26.1,15.6,65,30.07,10.0,NNW,19.6,24.2,N/A,,Clear,330,2013-03-19 13:15:00
7:35 AM,26.1,17.1,69,30.10,10.0,North,18.4,-,N/A,,Clear,350,2013-03-19 13:35:00
7:55 AM,26.6,16.0,64,30.12,10.0,North,16.1,21.9,N/A,,Clear,10,2013-03-19 13:55:00
8:15 AM,27.3,14.9,60,30.14,10.0,North,17.3,-,N/A,,Clear,350,2013-03-19 14:15:00
8:35 AM,28.9,15.8,58,30.14,10.0,North,15.0,-,N/A,,Clear,360,2013-03-19 14:35:00
8:55 AM,30.7,18.3,60,30.13,10.0,North,12.7,-,N/A,,Clear,360,2013-03-19 14:55:00
9:15 AM,33.3,19.8,58,30.14,10.0,North,11.5,-,N/A,,Clear,350,2013-03-19 15:15:00
9:35 AM,35.4,20.5,55,30.14,10.0,NNW,13.8,-,N/A,,Clear,330,2013-03-19 15:35:00
9:55 AM,38.7,20.5,48,30.14,10.0,NW,15.0,21.9,N/A,,Clear,320,2013-03-19 15:55:00
10:15 AM,40.8,15.8,36,30.14,10.0,NW,20.7,-,N/A,,Clear,320,2013-03-19 16:15:00
10:35 AM,41.9,14.0,32,30.14,10.0,NW,20.7,24.2,N/A,,Clear,320,2013-03-19 16:35:00
10:55 AM,43.5,11.7,27,30.14,10.0,NNW,19.6,26.5,N/A,,Clear,340,2013-03-19 16:55:00
11:15 AM,44.6,5.9,20,30.14,10.0,NW,20.7,27.6,N/A,,Clear,320,2013-03-19 17:15:00
11:35 AM,45.7,5.7,19,30.13,10.0,NNW,23.0,27.6,N/A,,Clear,330,2013-03-19 17:35:00
11:55 AM,45.9,5.7,19,30.13,10.0,NNW,17.3,28.8,N/A,,Clear,330,2013-03-19 17:55:00
12:15 PM,45.9,5.9,19,30.12,10.0,NNW,21.9,26.5,N/A,,Clear,340,2013-03-19 18:15:00
12:35 PM,48.2,2.8,16,30.12,10.0,NW,16.1,32.2,N/A,,Clear,320,2013-03-19 18:35:00
12:55 PM,50.0,1.0,13,30.11,10.0,NNW,19.6,31.1,N/A,,Clear,340,2013-03-19 18:55:00
1:15 PM,49.6,0.1,13,30.11,10.0,NW,18.4,27.6,N/A,,Clear,320,2013-03-19 19:15:00
1:35 PM,51.1,-0.4,12,30.10,10.0,NNW,19.6,31.1,N/A,,Clear,330,2013-03-19 19:35:00
1:55 PM,51.8,-2.6,11,30.09,10.0,NW,27.6,33.4,N/A,,Clear,320,2013-03-19 19:55:00
2:15 PM,52.2,-3.1,10,30.09,10.0,NNW,24.2,32.2,N/A,,Clear,340,2013-03-19 20:15:00
2:35 PM,52.3,-2.9,10,30.08,10.0,NNW,25.3,33.4,N/A,,Clear,330,2013-03-19 20:35:00
2:55 PM,52.9,-3.5,10,30.07,10.0,NNW,26.5,39.1,N/A,,Clear,330,2013-03-19 20:55:00
3:15 PM,53.4,-4.0,9,30.08,10.0,NW,28.8,36.8,N/A,,Clear,320,2013-03-19 21:15:00
3:35 PM,53.8,-3.8,9,30.07,10.0,NNW,28.8,38.0,N/A,,Clear,330,2013-03-19 21:35:00
3:55 PM,53.6,-4.2,9,30.08,10.0,NNW,28.8,39.1,N/A,,Clear,330,2013-03-19 21:55:00
4:15 PM,52.3,1.6,13,30.08,10.0,North,24.2,38.0,N/A,,Clear,360,2013-03-19 22:15:00
4:35 PM,51.1,4.5,15,30.09,10.0,North,21.9,28.8,N/A,,Clear,360,2013-03-19 22:35:00
4:55 PM,50.2,4.8,16,30.10,10.0,North,18.4,27.6,N/A,,Clear,10,2013-03-19 22:55:00
5:15 PM,49.1,6.4,18,30.11,10.0,NNE,18.4,28.8,N/A,,Clear,20,2013-03-19 23:15:00
5:35 PM,47.1,6.3,19,30.12,10.0,NNE,21.9,27.6,N/A,,Clear,30,2013-03-19 23:35:00
5:55 PM,46.6,5.7,19,30.13,10.0,North,23.0,26.5,N/A,,Clear,10,2013-03-19 23:55:00
6:15 PM,44.8,5.4,20,30.14,10.0,NNE,20.7,28.8,N/A,,Clear,20,2013-03-20 00:15:00
6:35 PM,43.0,6.1,22,30.15,10.0,NNE,17.3,26.5,N/A,,Clear,20,2013-03-20 00:35:00
6:55 PM,40.3,7.5,26,30.17,10.0,NNE,18.4,-,N/A,,Clear,20,2013-03-20 00:55:00
7:15 PM,36.5,14.7,41,30.20,10.0,NE,13.8,-,N/A,,Clear,40,2013-03-20 01:15:00
7:35 PM,34.5,15.8,46,30.22,10.0,ENE,11.5,-,N/A,,Clear,60,2013-03-20 01:35:00
7:55 PM,33.1,16.5,51,30.23,10.0,NE,12.7,-,N/A,,Clear,50,2013-03-20 01:55:00
8:15 PM,32.0,16.7,53,30.25,10.0,East,9.2,-,N/A,,Clear,80,2013-03-20 02:15:00
8:35 PM,29.5,16.5,59,30.25,10.0,NNE,19.6,-,N/A,,Clear,30,2013-03-20 02:35:00
8:55 PM,30.0,16.7,58,30.28,10.0,NE,12.7,17.3,N/A,,Clear,50,2013-03-20 02:55:00
9:15 PM,28.6,18.1,65,30.29,10.0,NNE,9.2,-,N/A,,Scattered Clouds,30,2013-03-20 03:15:00
9:35 PM,26.6,18.3,71,30.30,10.0,NNE,9.2,-,N/A,,Clear,20,2013-03-20 03:35:00
9:55 PM,25.7,18.9,75,30.30,10.0,North,8.1,-,N/A,,Clear,10,2013-03-20 03:55:00
10:15 PM,24.6,18.9,79,30.33,10.0,North,9.2,-,N/A,,Clear,350,2013-03-20 04:15:00
10:35 PM,24.3,18.5,79,30.33,10.0,North,9.2,-,N/A,,Clear,350,2013-03-20 04:35:00
10:55 PM,23.4,18.5,82,30.34,10.0,North,10.4,-,N/A,,Clear,360,2013-03-20 04:55:00
11:35 PM,22.8,18.3,83,30.34,10.0,NNW,12.7,-,N/A,,Clear,340,2013-03-20 05:35:00
11:55 PM,21.4,17.2,84,30.34,10.0,North,9.2,-,N/A,,Clear,350,2013-03-20 05:55:00